• In Belarus
  • List of Countries
  • For 7 days
  • Water Temperature
  • Satellite Maps
  • Weather Map
  • Weather Widgets
  • user-avatar
    Login

    Hourly Weather Wiewierz

    Today, 16 July, Monday

    Time Temperature Precipitation Wind Pressure Humidity
    00:00 +17°C° 0 mm 2 mps 753 mmHg 81%
    01:00 +17°C° 0 mm 2 mps 753 mmHg 85%
    02:00 +16°C° 0 mm 2 mps 753 mmHg 87%
    03:00 +16°C° 0 mm 2 mps 753 mmHg 90%
    04:00 +16°C° 0 mm 1 mps 753 mmHg 92%
    05:00 +17°C° 0 mm 2 mps 752 mmHg 87%
    06:00 +18°C° 0 mm 2 mps 752 mmHg 81%
    07:00 +20°C° 0 mm 2 mps 752 mmHg 76%
    08:00 +21°C° 0 mm 2 mps 752 mmHg 69%
    09:00 +24°C° 0 mm 3 mps 752 mmHg 63%
    10:00 +25°C° 0 mm 3 mps 752 mmHg 56%
    11:00 +26°C° 0 mm 3 mps 751 mmHg 52%
    12:00 +27°C° 0 mm 3 mps 751 mmHg 49%
    13:00 +28°C° 0 mm 3 mps 750 mmHg 46%
    14:00 +28°C° 0.2 mm 3 mps 750 mmHg 47%
    15:00 +28°C° 0.2 mm 3 mps 750 mmHg 48%
    16:00 +28°C° 0.2 mm 3 mps 750 mmHg 49%
    17:00 +26°C° 0.2 mm 3 mps 749 mmHg 58%
    18:00 +25°C° 0.2 mm 3 mps 749 mmHg 67%
    19:00 +23°C° 0.2 mm 2 mps 749 mmHg 75%
    20:00 +21°C° 0.1 mm 2 mps 749 mmHg 80%
    21:00 +20°C° 0.1 mm 2 mps 749 mmHg 84%
    22:00 +19°C° 0.1 mm 2 mps 749 mmHg 89%
    23:00 +19°C° 0.1 mm 2 mps 749 mmHg 90%

    Tomorrow, 17 July, Tuesday

    Time Temperature Precipitation Wind Pressure Humidity
    00:00 +18°C° 0.1 mm 3 mps 749 mmHg 91%
    01:00 +18°C° 0.1 mm 3 mps 748 mmHg 92%
    02:00 +18°C° 0.7 mm 3 mps 748 mmHg 92%
    03:00 +18°C° 0.7 mm 4 mps 748 mmHg 92%
    04:00 +18°C° 0.7 mm 4 mps 748 mmHg 92%
    05:00 +17°C° 1.4 mm 5 mps 748 mmHg 92%
    06:00 +17°C° 1.4 mm 5 mps 747 mmHg 92%
    07:00 +17°C° 1.4 mm 5 mps 747 mmHg 92%
    08:00 +17°C° 1.7 mm 6 mps 747 mmHg 92%
    09:00 +17°C° 1.7 mm 6 mps 747 mmHg 92%
    10:00 +17°C° 1.7 mm 6 mps 747 mmHg 93%
    11:00 +17°C° 1.1 mm 6 mps 747 mmHg 92%
    12:00 +19°C° 1.1 mm 6 mps 747 mmHg 92%
    13:00 +19°C° 1.1 mm 6 mps 747 mmHg 92%
    14:00 +19°C° 0.3 mm 6 mps 747 mmHg 91%
    15:00 +19°C° 0.3 mm 6 mps 747 mmHg 90%
    16:00 +19°C° 0.3 mm 6 mps 747 mmHg 89%
    17:00 +19°C° 0.1 mm 6 mps 747 mmHg 90%
    18:00 +19°C° 0.1 mm 6 mps 747 mmHg 90%
    19:00 +19°C° 0.1 mm 6 mps 747 mmHg 91%
    20:00 +19°C° 0.1 mm 5 mps 748 mmHg 92%
    21:00 +19°C° 0.1 mm 5 mps 748 mmHg 93%
    22:00 +19°C° 0.1 mm 5 mps 748 mmHg 94%
    23:00 +19°C° 0.1 mm 5 mps 748 mmHg 94%

    Day after tomorrow, 18 July, Wednesday

    Time Temperature Precipitation Wind Pressure Humidity
    00:00 +19°C° 0.1 mm 5 mps 748 mmHg 95%
    01:00 +19°C° 0.1 mm 5 mps 748 mmHg 95%
    02:00 +19°C° 0.1 mm 5 mps 748 mmHg 95%
    03:00 +17°C° 0.1 mm 5 mps 748 mmHg 94%
    04:00 +17°C° 0.1 mm 5 mps 748 mmHg 94%
    05:00 +19°C° 0.4 mm 6 mps 748 mmHg 94%
    06:00 +19°C° 0.4 mm 6 mps 748 mmHg 94%
    07:00 +19°C° 0.4 mm 6 mps 748 mmHg 93%
    08:00 +19°C° 0.6 mm 6 mps 748 mmHg 93%
    09:00 +19°C° 0.6 mm 6 mps 749 mmHg 92%
    10:00 +20°C° 0.6 mm 6 mps 749 mmHg 92%
    11:00 +20°C° 0.7 mm 6 mps 749 mmHg 91%
    12:00 +20°C° 0.7 mm 6 mps 749 mmHg 90%
    13:00 +20°C° 0.7 mm 6 mps 749 mmHg 90%
    14:00 +20°C° 0.4 mm 6 mps 749 mmHg 89%
    15:00 +20°C° 0.4 mm 6 mps 750 mmHg 88%
    16:00 +21°C° 0.4 mm 6 mps 750 mmHg 87%
    17:00 +20°C° 0.1 mm 5 mps 750 mmHg 88%
    18:00 +20°C° 0.1 mm 5 mps 750 mmHg 89%
    19:00 +20°C° 0.1 mm 4 mps 750 mmHg 89%
    20:00 +19°C° 0 mm 4 mps 751 mmHg 90%
    21:00 +19°C° 0 mm 4 mps 751 mmHg 91%
    22:00 +18°C° 0 mm 4 mps 751 mmHg 92%
    23:00 +18°C° 0.1 mm 4 mps 751 mmHg 93%

    19 July, Thursday

    Time Temperature Precipitation Wind Pressure Humidity
    00:00 +18°C° 0.1 mm 4 mps 751 mmHg 94%
    01:00 +18°C° 0.1 mm 4 mps 751 mmHg 94%
    02:00 +18°C° 0.1 mm 4 mps 751 mmHg 95%
    03:00 +18°C° 0.1 mm 4 mps 752 mmHg 95%
    04:00 +18°C° 0.1 mm 4 mps 752 mmHg 95%
    05:00 +18°C° 0.2 mm 4 mps 752 mmHg 94%
    06:00 +18°C° 0.2 mm 4 mps 752 mmHg 92%
    07:00 +19°C° 0.2 mm 4 mps 752 mmHg 91%
    08:00 +20°C° 0.2 mm 4 mps 752 mmHg 86%
    09:00 +20°C° 0.2 mm 4 mps 752 mmHg 82%
    10:00 +21°C° 0.2 mm 4 mps 752 mmHg 77%
    11:00 +22°C° 0.1 mm 4 mps 752 mmHg 73%
    12:00 +25°C° 0.1 mm 5 mps 752 mmHg 68%
    13:00 +26°C° 0.1 mm 5 mps 752 mmHg 64%
    14:00 +26°C° 0 mm 5 mps 752 mmHg 62%
    15:00 +26°C° 0 mm 5 mps 752 mmHg 61%
    16:00 +27°C° 0 mm 5 mps 752 mmHg 59%
    17:00 +26°C° 0 mm 4 mps 752 mmHg 65%
    18:00 +25°C° 0 mm 4 mps 752 mmHg 70%
    19:00 +24°C° 0 mm 3 mps 752 mmHg 75%
    20:00 +22°C° 0 mm 3 mps 752 mmHg 80%
    21:00 +20°C° 0 mm 2 mps 752 mmHg 85%
    22:00 +19°C° 0 mm 2 mps 752 mmHg 90%
    23:00 +19°C° 0 mm 2 mps 752 mmHg 92%

    20 July, Friday

    Time Temperature Precipitation Wind Pressure Humidity
    00:00 +18°C° 0 mm 2 mps 752 mmHg 93%
    01:00 +18°C° 0 mm 2 mps 752 mmHg 95%
    02:00 +17°C° 0 mm 2 mps 752 mmHg 95%
    03:00 +17°C° 0 mm 2 mps 752 mmHg 95%
    04:00 +17°C° 0 mm 2 mps 752 mmHg 96%
    05:00 +18°C° 0 mm 2 mps 752 mmHg 91%
    06:00 +19°C° 0 mm 2 mps 752 mmHg 86%
    07:00 +20°C° 0 mm 3 mps 752 mmHg 81%
    08:00 +22°C° 0 mm 3 mps 752 mmHg 74%
    09:00 +24°C° 0 mm 3 mps 752 mmHg 66%
    10:00 +26°C° 0 mm 3 mps 752 mmHg 59%
    11:00 +27°C° 0 mm 2 mps 752 mmHg 56%
    12:00 +27°C° 0 mm 2 mps 752 mmHg 52%
    13:00 +28°C° 0 mm 2 mps 752 mmHg 49%
    14:00 +28°C° 0 mm 2 mps 751 mmHg 48%
    15:00 +29°C° 0 mm 2 mps 751 mmHg 47%
    16:00 +29°C° 0 mm 2 mps 751 mmHg 45%
    17:00 +28°C° 0 mm 2 mps 751 mmHg 51%
    18:00 +27°C° 0 mm 2 mps 751 mmHg 56%
    19:00 +25°C° 0 mm 1 mps 751 mmHg 61%
    20:00 +24°C° 0 mm 1 mps 751 mmHg 65%
    21:00 +23°C° 0 mm 2 mps 751 mmHg 70%
    22:00 +20°C° 0 mm 2 mps 751 mmHg 74%
    23:00 +20°C° 0 mm 2 mps 751 mmHg 77%

    21 July, Saturday

    Time Temperature Precipitation Wind Pressure Humidity
    00:00 +19°C° 0 mm 2 mps 751 mmHg 80%
    01:00 +19°C° 0 mm 1 mps 751 mmHg 82%
    02:00 +19°C° 0 mm 1 mps 751 mmHg 85%
    03:00 +19°C° 0 mm 1 mps 751 mmHg 87%
    04:00 +18°C° 0 mm 1 mps 751 mmHg 89%
    05:00 +20°C° 0 mm 1 mps 751 mmHg 85%
    06:00 +21°C° 0 mm 1 mps 751 mmHg 81%
    07:00 +23°C° 0 mm 2 mps 751 mmHg 77%
    08:00 +24°C° 0 mm 2 mps 751 mmHg 71%
    09:00 +26°C° 0 mm 2 mps 751 mmHg 65%
    10:00 +27°C° 0 mm 2 mps 751 mmHg 59%
    11:00 +28°C° 0 mm 2 mps 751 mmHg 55%
    12:00 +28°C° 0 mm 2 mps 751 mmHg 51%
    13:00 +29°C° 0 mm 2 mps 751 mmHg 47%
    14:00 +29°C° 0 mm 2 mps 750 mmHg 48%
    15:00 +29°C° 0 mm 2 mps 750 mmHg 48%
    16:00 +29°C° 0 mm 3 mps 750 mmHg 49%
    17:00 +28°C° 0 mm 2 mps 750 mmHg 55%
    18:00 +27°C° 0 mm 2 mps 750 mmHg 60%
    19:00 +26°C° 0 mm 2 mps 750 mmHg 66%
    20:00 +24°C° 0 mm 2 mps 750 mmHg 68%
    21:00 +23°C° 0 mm 2 mps 750 mmHg 71%
    22:00 +21°C° 0 mm 2 mps 751 mmHg 73%
    23:00 +20°C° 0 mm 2 mps 751 mmHg 74%
    Show more